MISCOU ISLAND(AUT) N current weather conditions

sailwx.info

Wind from 270 at 1 knots

Air temperature 13.0° C
Dewpoint 12.0° C

Last reported at 2019-Jul-23 07:00 UTC.
Time now 2019-Jul-23 08:59 UTC

Location: N 48°01' W 064°30'.
View on Google Maps.

See reports from other nearby stations

  
Tides and Currents Weather Stations Pressure Air Temp Water Temp Dewpoint Dewpoint Depression Visibility Wind Speed Wind Dir Waves Ship Positions
date/time (UTC)wind fromknots sea level pressurealtimeterstation pressurevisibilityair tempwater tempwave heightnotes
2019-Jul-23 07:00 270 1 13.0
2019-Jul-23 06:00 250 4 13.0
2019-Jul-23 05:00 220 6 13.0
2019-Jul-23 04:00 210 6 13.0
2019-Jul-23 03:00 210 7 12.0
2019-Jul-23 02:00 190 5 16.0
2019-Jul-23 01:00 280 6 18.0
2019-Jul-23 00:00 280 7 18.0
2019-Jul-22 23:00 250 9 19.0
2019-Jul-22 22:00 250 13 gusting 19 20.0
2019-Jul-22 21:00 250 15 gusting 21 21.0
2019-Jul-22 20:00 250 17 gusting 24 22.0
2019-Jul-22 19:00 240 18 gusting 24 21.0
2019-Jul-22 18:00 250 19 gusting 25 21.0
2019-Jul-22 17:00 260 17 gusting 24 21.0
2019-Jul-22 16:00 260 19 gusting 26 20.0
2019-Jul-22 15:00 250 14 20.0
2019-Jul-22 14:00 260 13 gusting 21 20.0
2019-Jul-22 13:00 250 12 gusting 18 19.0
2019-Jul-22 12:00 260 11 gusting 15 18.0
2019-Jul-22 11:00 270 11 gusting 17 17.0
2019-Jul-22 10:00 250 7 16.0
2019-Jul-22 09:00 260 6 15.0
2019-Jul-22 08:00 240 6 15.0
2019-Jul-22 07:00 240 7 16.0
2019-Jul-22 06:00 240 7 15.0
2019-Jul-22 05:00 260 6 15.0
2019-Jul-22 04:00 260 5 15.0
2019-Jul-22 03:00 240 5 14.0
2019-Jul-22 02:00 270 0 15.0
2019-Jul-22 01:00 140 2 17.0
2019-Jul-22 00:00 140 6 17.0
2019-Jul-21 23:00 030 6 17.0
2019-Jul-21 22:00 100 5 18.0
2019-Jul-21 21:00 080 2 19.0
2019-Jul-21 20:00 250 6 19.0
2019-Jul-21 19:00 260 7 20.0
2019-Jul-21 18:00 240 12 19.0
2019-Jul-21 17:00 240 9 20.0
2019-Jul-21 16:00 250 6 21.0
2019-Jul-21 15:00 270 7 20.0
2019-Jul-21 14:00 250 11 19.0
2019-Jul-21 13:00 230 5 19.0
2019-Jul-21 12:00 250 4 19.0
2019-Jul-21 11:00 290 2 18.0
2019-Jul-21 10:00 260 4 17.0
2019-Jul-21 09:00 290 6 17.0
2019-Jul-21 08:00 180 2 17.0